User: anonymous   Login
Location: Granada
(37.1830°N, 3.6000°W)
Time: 04:57:17
(UTC+01:00)
Language:

Iridium 70 - Orbit

View from above orbital plane
View from above orbital plane
View from above satellite
View from above satellite

Ground track
Ground track

The orbit data is extracted from the following two-line orbital elements,

1 25342U 98032A   17050.65813187  .00000013  00000-0 -25386-5 0  9994
2 25342  86.3936 273.3707 0002154  85.0357 331.0227 14.34218249982254
Epoch (UTC): 19 February 2017 15:47:42
Eccentricity: 0.0002154
inclination: 86.3936°
perigee height: 776 km
apogee height: 779 km
right ascension of ascending node: 273.3707°
argument of perigee: 85.0357°
revolutions per day: 14.34218249
mean anomaly at epoch: 331.0227°
orbit number at epoch: 98225

The dashed part of the orbit path shows where the satellite is in the earth's shadow,  

DLR